Lid_Strength_Index
0 -0 -0 -0 -0 -1 -1 -1 -1 -1 -1 -1 -1 -1 -0 -0 -1 -0 -0 0 1 0 0 1 1 1 1 1 1 1 2 2 4 3 1 1 0 1 -0 -1 -1 -1 -1
0 -0 0 -0 -1 -0 -1 -1 -1 -1 -1 -1 -1 -0 -0 -0 -0 -0 0 0 1 1 1 1 1 1 1 1 1 2 2 1 2 4 2 2 1 1 0 0 0 -1 -0
1 1 0 -0 -0 -0 -0 -1 -1 -1 -1 -1 -1 -0 0 -0 -0 -0 -0 0 0 0 0 1 1 1 2 1 1 2 2 1 1 3 3 1 1 0 1 0 1 0 -0
0 0 0 -0 -0 -0 -0 -1 -1 -1 -0 -1 -1 -0 -0 -0 -0 -0 -0 0 0 0 -0 0 0 1 1 1 1 1 1 2 1 2 3 3 2 1 1 2 2 1 1
0 -0 0 -0 -1 -0 -0 -0 -0 -0 -0 -1 -0 -1 -0 -0 -0 -0 -0 -0 0 0 -0 -0 -0 -0 1 1 1 1 1 2 2 3 3 3 3 3 3 2 2 1 1
1 1 -0 -0 -0 -0 -0 -0 -0 -0 -0 -1 -0 -0 -0 0 1 1 0 0 0 0 1 0 -0 0 0 1 1 1 1 2 2 3 3 4 3 3 2 2 2 3 4
0 0 0 0 0 -0 -0 -0 0 0 -0 -0 0 -0 0 -0 1 1 0 -0 0 0 0 0 1 0 0 -0 1 1 1 2 1 1 3 3 3 2 2 2 2 2 3
1 0 0 0 0 0 0 0 0 0 0 0 0 0 0 0 1 2 1 -0 0 0 -0 -0 0 0 0 0 0 1 0 0 1 0 1 1 1 0 0 1 1 2 1
1 1 0 0 1 1 1 1 0 0 1 1 0 0 0 0 1 3 1 0 0 0 0 -0 -0 0 2 3 0 1 1 1 0 1 1 2 3 3 1 0 2 3 4
1 1 1 0 0 1 0 1 0 0 1 0 0 0 1 0 1 3 1 0 1 1 0 -0 1 0 4 5 1 1 2 1 1 0 -0 0 2 0 2 0 1 3 3
0 0 0 0 0 -0 0 -0 0 0 0 0 0 0 -0 -0 0 3 3 0 1 1 1 1 0 2 4 4 5 0 1 1 1 1 1 1 1 0 0 0 0 1 2
0 0 0 -0 0 0 -0 -0 -0 -0 0 1 1 1 0 -0 2 3 4 3 2 2 1 0 0 4 5 4 3 1 1 2 1 1 1 2 1 1 1 0 -0 -0 -0
0 0 0 -0 -0 -0 0 -0 1 0 1 1 2 2 2 2 1 4 4 4 3 2 1 2 3 3 4 2 2 2 3 1 1 2 2 2 1 1 0 -0 -1 -1 -0
0 0 0 0 0 0 1 1 2 2 3 3 3 4 4 3 4 5 5 5 4 4 3 3 3 3 3 2 2 1 1 1 1 1 2 1 0 1 1 1 1 1 2
1 1 1 1 2 2 1 2 2 1 4 4 4 5 5 6 6 8 9 6 6 6 6 4 2 1 2 1 1 1 1 1 2 1 1 2 2 1 1 1 1 2 2
2 2 3 3 3 3 3 3 5 6 7 8 8 7 4 7 9 10 10 10 10 9 5 4 2 2 3 2 2 2 1 1 1 1 1 1 2 2 2 2 1 2 3
3 3 3 3 4 4 4 4 4 4 5 7 8 8 8 9 9 10 10 10 9 7 6 7 6 5 5 2 2 2 2 1 1 1 1 1 1 1 2 2 2 2 2
4 6 4 4 4 4 4 4 3 4 4 3 6 6 7 8 8 9 8 6 4 4 4 6 7 7 7 6 5 5 3 2 2 1 1 1 1 2 2 2 2 2 2
5 5 4 4 3 4 3 3 3 3 2 2 2 4 5 7 8 7 7 5 6 6 6 6 6 6 6 6 6 6 5 4 2 2 1 1 1 2 2 2 2 4 3
4 6 4 4 4 4 4 3 3 2 2 2 2 2 2 3 3 4 4 5 6 6 7 7 7 6 6 6 6 6 6 5 3 3 2 2 2 2 2 2 2 2 2
4 4 2 4 4 3 3 2 2 2 2 2 2 2 7 2 3 3 5 6 6 7 7 8 7 7 7 7 7 7 7 7 6 4 4 3 3 4 3 2 2 2 2
2 2 3 3 3 3 3 2 2 2 1 1 1 1 6 2 2 2 3 5 7 7 7 8 8 8 8 9 8 8 8 8 8 7 6 5 5 5 4 4 3 2 2
2 2 2 2 1 2 2 2 2 1 2 1 1 1 1 1 1 2 2 3 5 7 8 9 9 9 9 9 8 8 9 9 9 8 8 7 7 7 6 6 5 4 3
2 2 1 1 1 1 1 1 1 3 1 1 1 1 1 0 0 1 2 3 4 5 7 9 9 9 9 9 9 9 8 8 9 10 10 10 9 9 8 6 6 5 4
1 1 0 1 1 1 1 1 1 1 1 1 1 0 0 0 0 1 1 2 4 4 6 8 9 10 9 9 9 9 10 15 13 13 12 12 11 10 9 8 7 5 4
0 0 0 0 0 0 1 1 1 0 1 0 0 0 0 0 0 0 1 2 3 4 5 5 8 9 9 9 9 11 14 16 14 15 14 14 12 11 10 9 8 6 5